Year,Month,Day,Hour,Minute,Value (Times are PST for temperature in C)
2015,06,27,00,00,18.30
2015,06,27,00,01,18.20
2015,06,27,00,02,18.20
2015,06,27,00,03,18.20
2015,06,27,00,04,18.20
2015,06,27,00,05,18.10
2015,06,27,00,06,18.10
2015,06,27,00,07,18.10
2015,06,27,00,08,18.00
2015,06,27,00,09,17.90
2015,06,27,00,10,17.90
2015,06,27,00,11,17.90
2015,06,27,00,12,17.90
2015,06,27,00,13,17.90
2015,06,27,00,14,17.90
2015,06,27,00,15,17.90
2015,06,27,00,16,17.90
2015,06,27,00,17,17.80
2015,06,27,00,18,17.80
2015,06,27,00,19,17.80
2015,06,27,00,20,17.70
2015,06,27,00,21,17.70
2015,06,27,00,22,17.70
2015,06,27,00,23,17.70
2015,06,27,00,24,17.60
2015,06,27,00,25,17.60
2015,06,27,00,26,17.60
2015,06,27,00,27,17.60
2015,06,27,00,28,17.50
2015,06,27,00,29,17.50
2015,06,27,00,30,17.50
2015,06,27,00,31,17.40
2015,06,27,00,32,17.40
2015,06,27,00,33,17.30
2015,06,27,00,34,17.30
2015,06,27,00,35,17.30
2015,06,27,00,36,17.30
2015,06,27,00,37,17.30
2015,06,27,00,38,17.20
2015,06,27,00,39,17.20
2015,06,27,00,40,17.20
2015,06,27,00,41,17.10
2015,06,27,00,42,17.10
2015,06,27,00,43,17.10
2015,06,27,00,44,17.00
2015,06,27,00,45,17.00
2015,06,27,00,46,17.00
2015,06,27,00,47,17.00
2015,06,27,00,48,16.90
2015,06,27,00,49,16.90
2015,06,27,00,50,16.90
2015,06,27,00,51,17.00
2015,06,27,00,52,17.00
2015,06,27,00,53,17.00
2015,06,27,00,54,17.00
2015,06,27,00,55,17.00
2015,06,27,00,56,16.90
2015,06,27,00,57,16.90
2015,06,27,00,58,16.80
2015,06,27,00,59,16.70
2015,06,27,01,00,16.70
2015,06,27,01,01,16.60
2015,06,27,01,02,16.50
2015,06,27,01,03,16.40
2015,06,27,01,04,16.30
2015,06,27,01,05,16.30
2015,06,27,01,06,16.30
2015,06,27,01,07,16.20
2015,06,27,01,08,16.20
2015,06,27,01,09,16.20
2015,06,27,01,10,16.20
2015,06,27,01,11,16.10
2015,06,27,01,12,16.10
2015,06,27,01,13,16.10
2015,06,27,01,14,16.10
2015,06,27,01,15,16.10
2015,06,27,01,16,16.10
2015,06,27,01,17,16.10
2015,06,27,01,18,16.00
2015,06,27,01,19,15.90
2015,06,27,01,20,15.80
2015,06,27,01,21,15.80
2015,06,27,01,22,15.70
2015,06,27,01,23,15.70
2015,06,27,01,24,15.60
2015,06,27,01,25,15.60
2015,06,27,01,26,15.60
2015,06,27,01,27,15.60
2015,06,27,01,28,15.60
2015,06,27,01,29,15.70
2015,06,27,01,30,15.70
2015,06,27,01,31,15.70
2015,06,27,01,32,15.70
2015,06,27,01,33,15.70
2015,06,27,01,34,15.70
2015,06,27,01,35,15.70
2015,06,27,01,36,15.70
2015,06,27,01,37,15.70
2015,06,27,01,38,15.70
2015,06,27,01,39,15.70
2015,06,27,01,40,15.70
2015,06,27,01,41,15.80
2015,06,27,01,42,15.80
2015,06,27,01,43,15.80
2015,06,27,01,44,15.80
2015,06,27,01,45,15.80
2015,06,27,01,46,15.80
2015,06,27,01,47,15.80
2015,06,27,01,48,15.80
2015,06,27,01,49,15.80
2015,06,27,01,50,15.80
2015,06,27,01,51,15.80
2015,06,27,01,52,15.80
2015,06,27,01,53,15.80
2015,06,27,01,54,15.80
2015,06,27,01,55,15.80
2015,06,27,01,56,15.80
2015,06,27,01,57,15.80
2015,06,27,01,58,15.80
2015,06,27,01,59,15.80
2015,06,27,02,00,15.80
2015,06,27,02,01,15.80
2015,06,27,02,02,15.80
2015,06,27,02,03,15.80
2015,06,27,02,04,15.90
2015,06,27,02,05,15.90
2015,06,27,02,06,15.90
2015,06,27,02,07,15.90
2015,06,27,02,08,15.90
2015,06,27,02,09,15.90
2015,06,27,02,10,15.90
2015,06,27,02,11,15.90
2015,06,27,02,12,15.90
2015,06,27,02,13,16.00
2015,06,27,02,14,16.10
2015,06,27,02,15,16.10
2015,06,27,02,16,16.10
2015,06,27,02,17,16.10
2015,06,27,02,18,16.10
2015,06,27,02,19,16.10
2015,06,27,02,20,16.10
2015,06,27,02,21,16.10
2015,06,27,02,22,16.10
2015,06,27,02,23,16.10
2015,06,27,02,24,16.10
2015,06,27,02,25,16.10
2015,06,27,02,26,16.10
2015,06,27,02,27,16.00
2015,06,27,02,28,15.90
2015,06,27,02,29,15.90
2015,06,27,02,30,15.90
2015,06,27,02,31,15.90
2015,06,27,02,32,15.90
2015,06,27,02,33,15.90
2015,06,27,02,34,15.90
2015,06,27,02,35,15.80
2015,06,27,02,36,15.80
2015,06,27,02,37,15.80
2015,06,27,02,38,15.80
2015,06,27,02,39,15.80
2015,06,27,02,40,15.80
2015,06,27,02,41,15.80
2015,06,27,02,42,15.80
2015,06,27,02,43,15.80
2015,06,27,02,44,15.80
2015,06,27,02,45,15.80
2015,06,27,02,46,15.80
2015,06,27,02,47,15.80
2015,06,27,02,48,15.80
2015,06,27,02,49,15.80
2015,06,27,02,50,15.80
2015,06,27,02,51,15.70
2015,06,27,02,52,15.70
2015,06,27,02,53,15.70
2015,06,27,02,54,15.70
2015,06,27,02,55,15.70
2015,06,27,02,56,15.60
2015,06,27,02,57,15.60
2015,06,27,02,58,15.60
2015,06,27,02,59,15.60
2015,06,27,03,00,15.60
2015,06,27,03,01,15.50
2015,06,27,03,02,15.50
2015,06,27,03,03,15.50
2015,06,27,03,04,15.50
2015,06,27,03,05,15.50
2015,06,27,03,06,15.50
2015,06,27,03,07,15.40
2015,06,27,03,08,15.40
2015,06,27,03,09,15.40
2015,06,27,03,10,15.40
2015,06,27,03,11,15.40
2015,06,27,03,12,15.40
2015,06,27,03,13,15.40
2015,06,27,03,14,15.40
2015,06,27,03,15,15.30
2015,06,27,03,16,15.30
2015,06,27,03,17,15.30
2015,06,27,03,18,15.30
2015,06,27,03,19,15.30
2015,06,27,03,20,15.30
2015,06,27,03,21,15.30
2015,06,27,03,22,15.30
2015,06,27,03,23,15.30
2015,06,27,03,24,15.20
2015,06,27,03,25,15.20
2015,06,27,03,26,15.20
2015,06,27,03,27,15.30
2015,06,27,03,28,15.30
2015,06,27,03,29,15.30
2015,06,27,03,30,15.30
2015,06,27,03,31,15.30
2015,06,27,03,32,15.30
2015,06,27,03,33,15.30
2015,06,27,03,34,15.30
2015,06,27,03,35,15.30
2015,06,27,03,36,15.20
2015,06,27,03,37,15.20
2015,06,27,03,38,15.20
2015,06,27,03,39,15.20
2015,06,27,03,40,15.20
2015,06,27,03,41,15.20
2015,06,27,03,42,15.20
2015,06,27,03,43,15.20
2015,06,27,03,44,15.20
2015,06,27,03,45,15.20
2015,06,27,03,46,15.20
2015,06,27,03,47,15.10
2015,06,27,03,48,15.10
2015,06,27,03,49,15.10
2015,06,27,03,50,15.10
2015,06,27,03,51,15.10
2015,06,27,03,52,15.10
2015,06,27,03,53,15.10
2015,06,27,03,54,15.10
2015,06,27,03,55,15.10
2015,06,27,03,56,15.10
2015,06,27,03,57,15.10
2015,06,27,03,58,15.10
2015,06,27,03,59,15.00
2015,06,27,04,00,15.00
2015,06,27,04,01,15.10
2015,06,27,04,02,15.10
2015,06,27,04,03,15.10
2015,06,27,04,04,15.10
2015,06,27,04,05,15.10
2015,06,27,04,06,15.10
2015,06,27,04,07,15.10
2015,06,27,04,08,15.10
2015,06,27,04,09,15.00
2015,06,27,04,10,15.00
2015,06,27,04,11,15.00
2015,06,27,04,12,15.00
2015,06,27,04,13,15.00
2015,06,27,04,14,14.90
2015,06,27,04,15,14.90
2015,06,27,04,16,14.90
2015,06,27,04,17,14.90
2015,06,27,04,18,14.80
2015,06,27,04,19,14.80
2015,06,27,04,20,14.80
2015,06,27,04,21,14.80
2015,06,27,04,22,14.80
2015,06,27,04,23,14.80
2015,06,27,04,24,14.80
2015,06,27,04,25,14.80
2015,06,27,04,26,14.80
2015,06,27,04,27,14.80
2015,06,27,04,28,14.80
2015,06,27,04,29,14.80
2015,06,27,04,30,14.80
2015,06,27,04,31,14.80
2015,06,27,04,32,14.80
2015,06,27,04,33,14.80
2015,06,27,04,34,14.80
2015,06,27,04,35,14.80
2015,06,27,04,36,14.80
2015,06,27,04,37,14.80
2015,06,27,04,38,14.80
2015,06,27,04,39,14.80
2015,06,27,04,40,14.80
2015,06,27,04,41,14.80
2015,06,27,04,42,14.80
2015,06,27,04,43,14.70
2015,06,27,04,44,14.70
2015,06,27,04,45,14.70
2015,06,27,04,46,14.70
2015,06,27,04,47,14.70
2015,06,27,04,48,14.70
2015,06,27,04,49,14.70
2015,06,27,04,50,14.70
2015,06,27,04,51,14.70
2015,06,27,04,52,14.70
2015,06,27,04,53,14.70
2015,06,27,04,54,14.70
2015,06,27,04,55,14.70
2015,06,27,04,56,14.70
2015,06,27,04,57,14.70
2015,06,27,04,58,14.60
2015,06,27,04,59,14.60
2015,06,27,05,00,14.60
2015,06,27,05,01,14.60
2015,06,27,05,02,14.60
2015,06,27,05,03,14.60
2015,06,27,05,04,14.60
2015,06,27,05,05,14.60
2015,06,27,05,06,14.60
2015,06,27,05,07,14.60
2015,06,27,05,08,14.60
2015,06,27,05,09,14.60
2015,06,27,05,10,14.60
2015,06,27,05,11,14.60
2015,06,27,05,12,14.60
2015,06,27,05,13,14.50
2015,06,27,05,14,14.50
2015,06,27,05,15,14.50
2015,06,27,05,16,14.50
2015,06,27,05,17,14.50
2015,06,27,05,18,14.50
2015,06,27,05,19,14.50
2015,06,27,05,20,14.50
2015,06,27,05,21,14.50
2015,06,27,05,22,14.50
2015,06,27,05,23,14.50
2015,06,27,05,24,14.50
2015,06,27,05,25,14.50
2015,06,27,05,26,14.60
2015,06,27,05,27,14.60
2015,06,27,05,28,14.60
2015,06,27,05,29,14.60
2015,06,27,05,30,14.60
2015,06,27,05,31,14.60
2015,06,27,05,32,14.60
2015,06,27,05,33,14.60
2015,06,27,05,34,14.60
2015,06,27,05,35,14.60
2015,06,27,05,36,14.60
2015,06,27,05,37,14.60
2015,06,27,05,38,14.60
2015,06,27,05,39,14.60
2015,06,27,05,40,14.60
2015,06,27,05,41,14.60
2015,06,27,05,42,14.70
2015,06,27,05,43,14.70
2015,06,27,05,44,14.70
2015,06,27,05,45,14.70
2015,06,27,05,46,14.70
2015,06,27,05,47,14.70
2015,06,27,05,48,14.70
2015,06,27,05,49,14.70
2015,06,27,05,50,14.70
2015,06,27,05,51,14.70
2015,06,27,05,52,14.70
2015,06,27,05,53,14.70
2015,06,27,05,54,14.70
2015,06,27,05,55,14.70
2015,06,27,05,56,14.70
2015,06,27,05,57,14.70
2015,06,27,05,58,14.70
2015,06,27,05,59,14.70
2015,06,27,06,00,14.70
2015,06,27,06,01,14.70
2015,06,27,06,02,14.70
2015,06,27,06,03,14.70
2015,06,27,06,04,14.80
2015,06,27,06,05,14.80
2015,06,27,06,06,14.80
2015,06,27,06,07,14.80
2015,06,27,06,08,14.80
2015,06,27,06,09,14.80
2015,06,27,06,10,14.80
2015,06,27,06,11,14.80
2015,06,27,06,12,14.80
2015,06,27,06,13,14.80
2015,06,27,06,14,14.90
2015,06,27,06,15,14.90
2015,06,27,06,16,15.00
2015,06,27,06,17,15.00
2015,06,27,06,18,15.00
2015,06,27,06,19,15.10
2015,06,27,06,20,15.10
2015,06,27,06,21,15.20
2015,06,27,06,22,15.20
2015,06,27,06,23,15.30
2015,06,27,06,24,15.30
2015,06,27,06,25,15.30
2015,06,27,06,26,15.40
2015,06,27,06,27,15.40
2015,06,27,06,28,15.50
2015,06,27,06,29,15.50
2015,06,27,06,30,15.50
2015,06,27,06,31,15.60
2015,06,27,06,32,15.60
2015,06,27,06,33,15.70
2015,06,27,06,34,15.70
2015,06,27,06,35,15.70
2015,06,27,06,36,15.80
2015,06,27,06,37,15.80
2015,06,27,06,38,15.80
2015,06,27,06,39,15.80
2015,06,27,06,40,15.80
2015,06,27,06,41,15.90
2015,06,27,06,42,16.00
2015,06,27,06,43,16.10
2015,06,27,06,44,16.10
2015,06,27,06,45,16.20
2015,06,27,06,46,16.20
2015,06,27,06,47,16.30
2015,06,27,06,48,16.30
2015,06,27,06,49,16.30
2015,06,27,06,50,16.30
2015,06,27,06,51,16.40
2015,06,27,06,52,16.40
2015,06,27,06,53,16.40
2015,06,27,06,54,16.40
2015,06,27,06,55,16.40
2015,06,27,06,56,16.40
2015,06,27,06,57,16.40
2015,06,27,06,58,16.40
2015,06,27,06,59,16.50
2015,06,27,07,00,16.60
2015,06,27,07,01,16.60
2015,06,27,07,02,16.70
2015,06,27,07,03,16.70
2015,06,27,07,04,16.70
2015,06,27,07,05,16.80
2015,06,27,07,06,16.80
2015,06,27,07,07,16.80
2015,06,27,07,08,16.80
2015,06,27,07,09,16.80
2015,06,27,07,10,16.90
2015,06,27,07,11,16.90
2015,06,27,07,12,16.90
2015,06,27,07,13,16.90
2015,06,27,07,14,17.00
2015,06,27,07,15,17.00
2015,06,27,07,16,17.00
2015,06,27,07,17,17.00
2015,06,27,07,18,17.00
2015,06,27,07,19,17.00
2015,06,27,07,20,17.00
2015,06,27,07,21,17.00
2015,06,27,07,22,17.00
2015,06,27,07,23,17.10
2015,06,27,07,24,17.20
2015,06,27,07,25,17.20
2015,06,27,07,26,17.30
2015,06,27,07,27,17.30
2015,06,27,07,28,17.30
2015,06,27,07,29,17.40
2015,06,27,07,30,17.50
2015,06,27,07,31,17.60
2015,06,27,07,32,17.70
2015,06,27,07,33,17.70
2015,06,27,07,34,17.90
2015,06,27,07,35,17.90
2015,06,27,07,36,18.10
2015,06,27,07,37,18.20
2015,06,27,07,38,18.20
2015,06,27,07,39,18.20
2015,06,27,07,40,18.30
2015,06,27,07,41,18.30
2015,06,27,07,42,18.50
2015,06,27,07,43,18.60
2015,06,27,07,44,18.70
2015,06,27,07,45,18.90
2015,06,27,07,46,19.00
2015,06,27,07,47,19.10
2015,06,27,07,48,19.20
2015,06,27,07,49,19.30
2015,06,27,07,50,19.40
2015,06,27,07,51,19.50
2015,06,27,07,52,19.50
2015,06,27,07,53,19.60
2015,06,27,07,54,19.70
2015,06,27,07,55,19.70
2015,06,27,07,56,19.80
2015,06,27,07,57,19.80
2015,06,27,07,58,19.80
2015,06,27,07,59,19.80
2015,06,27,08,00,19.90
2015,06,27,08,01,19.90
2015,06,27,08,02,19.90
2015,06,27,08,03,19.90
2015,06,27,08,04,19.90
2015,06,27,08,05,20.00
2015,06,27,08,06,20.10
2015,06,27,08,07,20.10
2015,06,27,08,08,20.10
2015,06,27,08,09,20.20
2015,06,27,08,10,20.20
2015,06,27,08,11,20.20
2015,06,27,08,12,20.30
2015,06,27,08,13,20.30
2015,06,27,08,14,20.40
2015,06,27,08,15,20.50
2015,06,27,08,16,20.50
2015,06,27,08,17,20.60
2015,06,27,08,18,20.70
2015,06,27,08,19,20.70
2015,06,27,08,20,20.60
2015,06,27,08,21,20.60
2015,06,27,08,22,20.50
2015,06,27,08,23,20.40
2015,06,27,08,24,20.30
2015,06,27,08,25,20.30
2015,06,27,08,26,20.20
2015,06,27,08,27,20.20
2015,06,27,08,28,20.20
2015,06,27,08,29,20.20
2015,06,27,08,30,20.20
2015,06,27,08,31,20.20
2015,06,27,08,32,20.30
2015,06,27,08,33,20.40
2015,06,27,08,34,20.50
2015,06,27,08,35,20.60
2015,06,27,08,36,20.60
2015,06,27,08,37,20.70
2015,06,27,08,38,20.80
2015,06,27,08,39,20.90
2015,06,27,08,40,20.90
2015,06,27,08,41,21.00
2015,06,27,08,42,21.00
2015,06,27,08,43,21.10
2015,06,27,08,44,21.20
2015,06,27,08,45,21.30
2015,06,27,08,46,21.30
2015,06,27,08,47,21.30
2015,06,27,08,48,21.30
2015,06,27,08,49,21.30
2015,06,27,08,50,21.30
2015,06,27,08,51,21.30
2015,06,27,08,52,21.30
2015,06,27,08,53,21.30
2015,06,27,08,54,21.30
2015,06,27,08,55,21.20
2015,06,27,08,56,21.20
2015,06,27,08,57,21.10
2015,06,27,08,58,21.00
2015,06,27,08,59,20.90
2015,06,27,09,00,20.80
2015,06,27,09,01,20.80
2015,06,27,09,02,20.70
2015,06,27,09,03,20.60
2015,06,27,09,04,20.60
2015,06,27,09,05,20.50
2015,06,27,09,06,20.50
2015,06,27,09,07,20.50
2015,06,27,09,08,20.50
2015,06,27,09,09,20.40
2015,06,27,09,10,20.40
2015,06,27,09,11,20.30
2015,06,27,09,12,20.40
2015,06,27,09,13,20.40
2015,06,27,09,14,20.50
2015,06,27,09,15,20.60
2015,06,27,09,16,20.60
2015,06,27,09,17,20.70
2015,06,27,09,18,20.80
2015,06,27,09,19,20.90
2015,06,27,09,20,21.00
2015,06,27,09,21,21.00
2015,06,27,09,22,21.10
2015,06,27,09,23,21.10
2015,06,27,09,24,21.20
2015,06,27,09,25,21.20
2015,06,27,09,26,21.10
2015,06,27,09,27,21.00
2015,06,27,09,28,20.90
2015,06,27,09,29,20.80
2015,06,27,09,30,20.70
2015,06,27,09,31,20.60
2015,06,27,09,32,20.50
2015,06,27,09,33,20.50
2015,06,27,09,34,20.40
2015,06,27,09,35,20.40
2015,06,27,09,36,20.40
2015,06,27,09,37,20.30
2015,06,27,09,38,20.30
2015,06,27,09,39,20.20
2015,06,27,09,40,20.20
2015,06,27,09,41,20.20
2015,06,27,09,42,20.20
2015,06,27,09,43,20.20
2015,06,27,09,44,20.20
2015,06,27,09,45,20.30
2015,06,27,09,46,20.30
2015,06,27,09,47,20.30
2015,06,27,09,48,20.40
2015,06,27,09,49,20.50
2015,06,27,09,50,20.50
2015,06,27,09,51,20.60
2015,06,27,09,52,20.60
2015,06,27,09,53,20.70
2015,06,27,09,54,20.80
2015,06,27,09,55,20.80
2015,06,27,09,56,20.90
2015,06,27,09,57,20.90
2015,06,27,09,58,20.90
2015,06,27,09,59,20.70
2015,06,27,10,00,20.40
2015,06,27,10,01,20.20
2015,06,27,10,02,20.00
2015,06,27,10,03,19.80
2015,06,27,10,04,19.60
2015,06,27,10,05,19.50
2015,06,27,10,06,19.40
2015,06,27,10,07,19.30
2015,06,27,10,08,19.10
2015,06,27,10,09,19.00
2015,06,27,10,10,18.90
2015,06,27,10,11,18.80
2015,06,27,10,12,18.70
2015,06,27,10,13,18.70
2015,06,27,10,14,18.70
2015,06,27,10,15,18.70
2015,06,27,10,16,18.80
2015,06,27,10,17,18.90
2015,06,27,10,18,19.10
2015,06,27,10,19,19.20
2015,06,27,10,20,19.40
2015,06,27,10,21,19.60
2015,06,27,10,22,19.70
2015,06,27,10,23,19.90
2015,06,27,10,24,20.00
2015,06,27,10,25,20.20
2015,06,27,10,26,20.20
2015,06,27,10,27,20.40
2015,06,27,10,28,20.50
2015,06,27,10,29,20.50
2015,06,27,10,30,20.50
2015,06,27,10,31,20.50
2015,06,27,10,32,20.60
2015,06,27,10,33,20.70
2015,06,27,10,34,20.70
2015,06,27,10,35,20.80
2015,06,27,10,36,20.80
2015,06,27,10,37,20.70
2015,06,27,10,38,20.70
2015,06,27,10,39,20.60
2015,06,27,10,40,20.70
2015,06,27,10,41,20.70
2015,06,27,10,42,20.80
2015,06,27,10,43,20.90
2015,06,27,10,44,21.10
2015,06,27,10,45,21.20
2015,06,27,10,46,21.30
2015,06,27,10,47,21.50
2015,06,27,10,48,21.60
2015,06,27,10,49,21.80
2015,06,27,10,50,22.00
2015,06,27,10,51,22.20
2015,06,27,10,52,22.20
2015,06,27,10,53,22.30
2015,06,27,10,54,22.50
2015,06,27,10,55,22.60
2015,06,27,10,56,22.70
2015,06,27,10,57,22.80
2015,06,27,10,58,22.90
2015,06,27,10,59,22.90
2015,06,27,11,00,22.80
2015,06,27,11,01,22.80
2015,06,27,11,02,22.80
2015,06,27,11,03,22.80
2015,06,27,11,04,22.80
2015,06,27,11,05,22.80
2015,06,27,11,06,22.80
2015,06,27,11,07,22.70
2015,06,27,11,08,22.80
2015,06,27,11,09,22.80
2015,06,27,11,10,22.70
2015,06,27,11,11,22.70
2015,06,27,11,12,22.70
2015,06,27,11,13,22.70
2015,06,27,11,14,22.70
2015,06,27,11,15,22.80
2015,06,27,11,16,22.80
2015,06,27,11,17,22.80
2015,06,27,11,18,22.90
2015,06,27,11,19,22.90
2015,06,27,11,20,23.00
2015,06,27,11,21,23.10
2015,06,27,11,22,23.10
2015,06,27,11,23,23.20
2015,06,27,11,24,23.20
2015,06,27,11,25,23.20
2015,06,27,11,26,23.20
2015,06,27,11,27,23.20
2015,06,27,11,28,23.20
2015,06,27,11,29,23.20
2015,06,27,11,30,23.10
2015,06,27,11,31,23.00
2015,06,27,11,32,22.90
2015,06,27,11,33,22.90
2015,06,27,11,34,22.90
2015,06,27,11,35,22.90
2015,06,27,11,36,23.00
2015,06,27,11,37,23.10
2015,06,27,11,38,22.90
2015,06,27,11,39,22.90
2015,06,27,11,40,22.90
2015,06,27,11,41,23.00
2015,06,27,11,42,23.10
2015,06,27,11,43,23.20
2015,06,27,11,44,23.10
2015,06,27,11,45,23.10
2015,06,27,11,46,23.00
2015,06,27,11,47,22.90
2015,06,27,11,48,22.90
2015,06,27,11,49,22.90
2015,06,27,11,50,22.90
2015,06,27,11,51,23.00
2015,06,27,11,52,23.10
2015,06,27,11,53,23.20
2015,06,27,11,54,23.40
2015,06,27,11,55,23.40
2015,06,27,11,56,23.40
2015,06,27,11,57,23.50
2015,06,27,11,58,23.60
2015,06,27,11,59,23.60
2015,06,27,12,00,23.60
2015,06,27,12,01,23.50
2015,06,27,12,02,23.30
2015,06,27,12,03,23.30
2015,06,27,12,04,23.30
2015,06,27,12,05,23.30
2015,06,27,12,06,23.30
2015,06,27,12,07,23.30
2015,06,27,12,08,23.30
2015,06,27,12,09,23.40
2015,06,27,12,10,23.40
2015,06,27,12,11,23.40
2015,06,27,12,12,23.40
2015,06,27,12,13,23.40
2015,06,27,12,14,23.50
2015,06,27,12,15,23.60
2015,06,27,12,16,23.70
2015,06,27,12,17,23.80
2015,06,27,12,18,23.90
2015,06,27,12,19,23.90
2015,06,27,12,20,23.90
2015,06,27,12,21,23.90
2015,06,27,12,22,23.90
2015,06,27,12,23,24.00
2015,06,27,12,24,24.10
2015,06,27,12,25,24.10
2015,06,27,12,26,24.20
2015,06,27,12,27,24.30
2015,06,27,12,28,24.30
2015,06,27,12,29,24.40
2015,06,27,12,30,24.50
2015,06,27,12,31,24.50
2015,06,27,12,32,24.60
2015,06,27,12,33,24.60
2015,06,27,12,34,24.60
2015,06,27,12,35,24.60
2015,06,27,12,36,24.60
2015,06,27,12,37,24.60
2015,06,27,12,38,24.60
2015,06,27,12,39,24.70
2015,06,27,12,40,24.70
2015,06,27,12,41,24.70
2015,06,27,12,42,24.60
2015,06,27,12,43,24.60
2015,06,27,12,44,24.60
2015,06,27,12,45,24.60
2015,06,27,12,46,24.50
2015,06,27,12,47,24.40
2015,06,27,12,48,24.40
2015,06,27,12,49,24.40
2015,06,27,12,50,24.50
2015,06,27,12,51,24.60
2015,06,27,12,52,24.60
2015,06,27,12,53,24.70
2015,06,27,12,54,24.70
2015,06,27,12,55,24.50
2015,06,27,12,56,24.40
2015,06,27,12,57,24.20
2015,06,27,12,58,24.10
2015,06,27,12,59,24.10
2015,06,27,13,00,24.10
2015,06,27,13,01,24.00
2015,06,27,13,02,23.90
2015,06,27,13,03,23.90
2015,06,27,13,04,23.90
2015,06,27,13,05,23.90
2015,06,27,13,06,23.90
2015,06,27,13,07,23.90
2015,06,27,13,08,24.00
2015,06,27,13,09,24.10
2015,06,27,13,10,24.10
2015,06,27,13,11,24.20
2015,06,27,13,12,24.30
2015,06,27,13,13,24.40
2015,06,27,13,14,24.50
2015,06,27,13,15,24.60
2015,06,27,13,16,24.60
2015,06,27,13,17,24.70
2015,06,27,13,18,24.80
2015,06,27,13,19,24.90
2015,06,27,13,20,25.00
2015,06,27,13,21,25.20
2015,06,27,13,22,25.40
2015,06,27,13,23,25.50
2015,06,27,13,24,25.70
2015,06,27,13,25,25.70
2015,06,27,13,26,25.80
2015,06,27,13,27,25.90
2015,06,27,13,28,26.00
2015,06,27,13,29,26.10
2015,06,27,13,30,26.20
2015,06,27,13,31,26.30
2015,06,27,13,32,26.30
2015,06,27,13,33,26.30
2015,06,27,13,34,26.40
2015,06,27,13,35,26.40
2015,06,27,13,36,26.50
2015,06,27,13,37,26.60
2015,06,27,13,38,26.60
2015,06,27,13,39,26.60
2015,06,27,13,40,26.60
2015,06,27,13,41,26.60
2015,06,27,13,42,26.50
2015,06,27,13,43,26.30
2015,06,27,13,44,26.30
2015,06,27,13,45,26.30
2015,06,27,13,46,26.30
2015,06,27,13,47,26.40
2015,06,27,13,48,26.40
2015,06,27,13,49,26.50
2015,06,27,13,50,26.60
2015,06,27,13,51,26.60
2015,06,27,13,52,26.60
2015,06,27,13,53,26.50
2015,06,27,13,54,26.60
2015,06,27,13,55,26.60
2015,06,27,13,56,26.60
2015,06,27,13,57,26.60
2015,06,27,13,58,26.60
2015,06,27,13,59,26.70
2015,06,27,14,00,26.70
2015,06,27,14,01,26.80
2015,06,27,14,02,26.80
2015,06,27,14,03,26.90
2015,06,27,14,04,27.00
2015,06,27,14,05,27.10
2015,06,27,14,06,27.20
2015,06,27,14,07,27.20
2015,06,27,14,08,27.30
2015,06,27,14,09,27.40
2015,06,27,14,10,27.60
2015,06,27,14,11,27.70
2015,06,27,14,12,27.90
2015,06,27,14,13,28.00
2015,06,27,14,14,28.10
2015,06,27,14,15,28.20
2015,06,27,14,16,28.30
2015,06,27,14,17,28.30
2015,06,27,14,18,28.30
2015,06,27,14,19,28.30
2015,06,27,14,20,28.20
2015,06,27,14,21,28.20
2015,06,27,14,22,28.20
2015,06,27,14,23,28.20
2015,06,27,14,24,28.20
2015,06,27,14,25,28.30
2015,06,27,14,26,28.30
2015,06,27,14,27,28.30
2015,06,27,14,28,28.30
2015,06,27,14,29,28.20
2015,06,27,14,30,28.20
2015,06,27,14,31,28.20
2015,06,27,14,32,28.10
2015,06,27,14,33,28.00
2015,06,27,14,34,28.00
2015,06,27,14,35,27.90
2015,06,27,14,36,27.90
2015,06,27,14,37,27.90
2015,06,27,14,38,27.80
2015,06,27,14,39,27.80
2015,06,27,14,40,27.80
2015,06,27,14,41,27.70
2015,06,27,14,42,27.70
2015,06,27,14,43,27.70
2015,06,27,14,44,27.70
2015,06,27,14,45,27.70
2015,06,27,14,46,27.70
2015,06,27,14,47,27.70
2015,06,27,14,48,27.80
2015,06,27,14,49,27.90
2015,06,27,14,50,27.90
2015,06,27,14,51,27.80
2015,06,27,14,52,27.70
2015,06,27,14,53,27.70
2015,06,27,14,54,27.60
2015,06,27,14,55,27.60
2015,06,27,14,56,27.60
2015,06,27,14,57,27.60
2015,06,27,14,58,27.60
2015,06,27,14,59,27.50
2015,06,27,15,00,27.30
2015,06,27,15,01,27.30
2015,06,27,15,02,27.30
2015,06,27,15,03,27.30
2015,06,27,15,04,27.40
2015,06,27,15,05,27.50
2015,06,27,15,06,27.60
2015,06,27,15,07,27.70
2015,06,27,15,08,27.80
2015,06,27,15,09,27.90
2015,06,27,15,10,28.00
2015,06,27,15,11,28.10
2015,06,27,15,12,28.10
2015,06,27,15,13,28.10
2015,06,27,15,14,28.20
2015,06,27,15,15,28.20
2015,06,27,15,16,28.30
2015,06,27,15,17,28.30
2015,06,27,15,18,28.20
2015,06,27,15,19,28.20
2015,06,27,15,20,28.20
2015,06,27,15,21,28.20
2015,06,27,15,22,28.30
2015,06,27,15,23,28.30
2015,06,27,15,24,28.40
2015,06,27,15,25,28.50
2015,06,27,15,26,28.60
2015,06,27,15,27,28.60
2015,06,27,15,28,28.70
2015,06,27,15,29,28.80
2015,06,27,15,30,28.80
2015,06,27,15,31,28.80
2015,06,27,15,32,28.80
2015,06,27,15,33,28.80
2015,06,27,15,34,28.90
2015,06,27,15,35,28.90
2015,06,27,15,36,28.90
2015,06,27,15,37,28.80
2015,06,27,15,38,28.70
2015,06,27,15,39,28.70
2015,06,27,15,40,28.70
2015,06,27,15,41,28.60
2015,06,27,15,42,28.50
2015,06,27,15,43,28.40
2015,06,27,15,44,28.40
2015,06,27,15,45,28.30
2015,06,27,15,46,28.20
2015,06,27,15,47,28.10
2015,06,27,15,48,28.00
2015,06,27,15,49,27.90
2015,06,27,15,50,27.80
2015,06,27,15,51,27.70
2015,06,27,15,52,27.70
2015,06,27,15,53,27.70
2015,06,27,15,54,27.70
2015,06,27,15,55,27.70
2015,06,27,15,56,27.60
2015,06,27,15,57,27.50
2015,06,27,15,58,27.40
2015,06,27,15,59,27.30
2015,06,27,16,00,27.30
2015,06,27,16,01,27.30
2015,06,27,16,02,27.30
2015,06,27,16,03,27.40
2015,06,27,16,04,27.50
2015,06,27,16,05,27.60
2015,06,27,16,06,27.60
2015,06,27,16,07,27.60
2015,06,27,16,08,27.70
2015,06,27,16,09,27.70
2015,06,27,16,10,27.80
2015,06,27,16,11,27.80
2015,06,27,16,12,27.80
2015,06,27,16,13,27.80
2015,06,27,16,14,27.70
2015,06,27,16,15,27.60
2015,06,27,16,16,27.50
2015,06,27,16,17,27.40
2015,06,27,16,18,27.40
2015,06,27,16,19,27.30
2015,06,27,16,20,27.30
2015,06,27,16,21,27.30
2015,06,27,16,22,27.30
2015,06,27,16,23,27.30
2015,06,27,16,24,27.30
2015,06,27,16,25,27.30
2015,06,27,16,26,27.30
2015,06,27,16,27,27.40
2015,06,27,16,28,27.50
2015,06,27,16,29,27.60
2015,06,27,16,30,27.60
2015,06,27,16,31,27.70
2015,06,27,16,32,27.80
2015,06,27,16,33,27.80
2015,06,27,16,34,27.80
2015,06,27,16,35,27.90
2015,06,27,16,36,27.90
2015,06,27,16,37,27.90
2015,06,27,16,38,27.90
2015,06,27,16,39,28.00
2015,06,27,16,40,28.10
2015,06,27,16,41,28.20
2015,06,27,16,42,28.30
2015,06,27,16,43,28.40
2015,06,27,16,44,28.60
2015,06,27,16,45,28.80
2015,06,27,16,46,28.90
2015,06,27,16,47,29.10
2015,06,27,16,48,29.30
2015,06,27,16,49,29.50
2015,06,27,16,50,29.60
2015,06,27,16,51,29.70
2015,06,27,16,52,29.80
2015,06,27,16,53,29.80
2015,06,27,16,54,29.80
2015,06,27,16,55,29.80
2015,06,27,16,56,29.80
2015,06,27,16,57,29.80
2015,06,27,16,58,29.60
2015,06,27,16,59,29.40
2015,06,27,17,00,29.20
2015,06,27,17,01,29.00
2015,06,27,17,02,28.90
2015,06,27,17,03,28.70
2015,06,27,17,04,28.50
2015,06,27,17,05,28.30
2015,06,27,17,06,28.20
2015,06,27,17,07,28.10
2015,06,27,17,08,27.90
2015,06,27,17,09,27.90
2015,06,27,17,10,27.80
2015,06,27,17,11,27.70
2015,06,27,17,12,27.60
2015,06,27,17,13,27.60
2015,06,27,17,14,27.50
2015,06,27,17,15,27.30
2015,06,27,17,16,27.20
2015,06,27,17,17,27.10
2015,06,27,17,18,26.90
2015,06,27,17,19,26.80